ZL1TQN Weather Reports


Display with metric or nautical units.
time (UTC)temp
F
wind
direction
speed
MPH
gust
MPH
rain 1hr
in
rain 24hr
in
rain mn
in
humidity
%
barometer
mb
20260508193505 55 146 1.0 3.0 0.01 0.54 0.40 95 1006.6
20260508193005 55 118 1.0 3.0 0.01 0.54 0.40 95 1006.6
20260508192506 55 153 2.0 3.0 0.01 0.54 0.40 95 1006.6
20260508192005 56 162 2.0 3.0 0.01 0.54 0.40 95 1006.6
20260508191505 56 237 0.0 0.0 0.01 0.54 0.40 96 1006.5
20260508190005 56 315 0.0 0.0 0.00 0.53 0.39 95 1006.3
20260508185505 56 212 0.0 0.0 0.00 0.53 0.39 95 1006.2
20260508184505 57 213 0.0 0.0 0.00 0.53 0.39 95 1006.3
20260508184005 57 285 0.0 0.0 0.00 0.53 0.39 95 1006.3
20260508183505 57 291 0.0 0.0 0.00 0.53 0.39 95 1006.5
20260508183005 57 294 0.0 0.0 0.00 0.53 0.39 95 1006.5
20260508182505 57 248 0.0 1.0 0.00 0.53 0.39 95 1006.4
20260508182006 58 287 0.0 1.0 0.00 0.53 0.39 95 1006.2
20260508181505 58 6 0.0 1.0 0.00 0.53 0.39 95 1006.3
20260508181005 58 6 0.0 1.0 0.00 0.53 0.39 95 1006.3
20260508175505 58 6 0.0 1.0 0.00 0.53 0.39 95 1006.3
20260508174505 58 6 0.0 1.0 0.00 0.53 0.39 95 1006.2
20260508174005 58 6 0.0 1.0 0.00 0.53 0.39 95 1006.3
20260508173505 58 6 0.0 2.0 0.00 0.53 0.39 95 1006.3
20260508173006 58 6 0.0 2.0 0.00 0.53 0.39 95 1006.2
20260508172505 58 8 1.0 2.0 0.00 0.53 0.39 95 1006.2
20260508171505 58 196 0.0 0.0 0.00 0.53 0.39 95 1006.1
20260508171005 58 196 0.0 0.0 0.00 0.53 0.39 95 1006.1
20260508170005 59 196 0.0 0.0 0.00 0.53 0.39 95 1005.7
20260508165505 59 196 0.0 0.0 0.00 0.53 0.39 95 1005.8
20260508165005 59 196 0.0 0.0 0.00 0.53 0.39 95 1005.8
20260508164505 59 214 0.0 0.0 0.01 0.53 0.39 95 1005.7
20260508164005 59 273 0.0 0.0 0.01 0.53 0.39 95 1005.7
20260508163505 59 273 0.0 0.0 0.02 0.53 0.39 95 1005.9
20260508161505 59 201 0.0 0.0 0.10 0.54 0.39 94 1005.7
20260508161005 59 245 0.0 0.0 0.11 0.57 0.39 94 1005.9
20260508160005 59 246 0.0 3.0 0.13 0.58 0.39 94 1006.1
20260508155505 59 264 2.0 3.0 0.14 0.58 0.39 94 1006.2
20260508155005 59 264 1.0 6.0 0.21 0.58 0.39 94 1006.4
20260508154505 59 268 2.0 6.0 0.27 0.57 0.39 94 1006.6
20260508154005 59 254 4.0 6.0 0.27 0.57 0.39 94 1006.6
20260508153505 60 305 2.0 6.0 0.25 0.56 0.37 94 1006.7
20260508153005 60 286 2.0 7.0 0.19 0.50 0.31 93 1006.7
20260508152005 60 257 3.0 14.0 0.18 0.48 0.29 93 1006.6
20260508151505 60 276 3.0 14.0 0.19 0.48 0.29 93 1006.6
20260508151005 61 256 6.0 13.0 0.18 0.47 0.28 93 1006.6
20260508145505 63 282 6.0 21.0 0.17 0.44 0.25 94 1006.4
20260508145005 64 299 7.0 21.0 0.10 0.37 0.18 95 1006.2
20260508144505 64 349 8.0 21.0 0.04 0.31 0.12 95 1006.1
20260508144004 64 353 6.0 20.0 0.05 0.31 0.12 95 1006.1
20260508143505 64 10 8.0 20.0 0.05 0.31 0.12 95 1006.1
20260508143005 64 353 6.0 16.0 0.06 0.31 0.12 95 1006.1
20260508142505 64 351 7.0 16.0 0.07 0.30 0.11 95 1006.2
20260508142005 64 354 6.0 16.0 0.07 0.30 0.11 95 1006.5
20260508141505 64 2 8.0 15.0 0.07 0.29 0.10 95 1006.6
20260508141005 64 350 7.0 17.0 0.07 0.29 0.10 95 1006.7
20260508140006 64 357 7.0 17.0 0.06 0.28 0.09 95 1006.7
20260508135005 64 7 6.0 24.0 0.06 0.27 0.08 94 1007.1
20260508134505 64 4 7.0 24.0 0.06 0.27 0.08 94 1007.1
20260508134005 64 357 5.0 24.0 0.06 0.26 0.07 94 1007.2
20260508133505 64 356 5.0 17.0 0.06 0.26 0.07 94 1007.4
20260508133005 64 354 4.0 17.0 0.06 0.24 0.06 94 1007.6
20260508132505 64 356 7.0 17.0 0.04 0.23 0.04 93 1007.5
20260508131005 64 3 7.0 20.0 0.03 0.22 0.03 93 1007.6
20260508130005 64 353 5.0 16.0 0.03 0.22 0.03 93 1007.7
20260508125507 64 6 7.0 13.0 0.13 0.22 0.03 93 1007.7
20260508125005 64 8 5.0 13.0 0.12 0.21 0.02 93 1007.8
20260508124505 64 356 6.0 15.0 0.12 0.21 0.02 93 1008.0
20260508124005 64 16 3.0 15.0 0.10 0.20 0.01 93 1008.1
20260508123505 64 1 7.0 14.0 0.10 0.20 0.01 92 1008.1
20260508123005 64 5 5.0 12.0 0.09 0.19 0.00 92 1008.3
20260508122504 64 0 4.0 12.0 0.09 0.19 0.00 92 1008.4
20260508122005 64 12 5.0 12.0 0.09 0.19 0.00 92 1008.6
20260508121505 64 348 2.0 12.0 0.09 0.19 0.00 91 1008.7
20260508121005 64 1 4.0 12.0 0.00 0.19 0.09 91 1008.7
20260508120005 64 346 4.0 12.0 0.00 0.12 0.00 91 1008.8
20260508115504 64 356 5.0 12.0 0.00 0.12 0.09 90 1009.0
20260508115004 64 8 5.0 12.0 0.00 0.12 0.09 90 1009.2
20260508114505 64 334 4.0 12.0 0.00 0.12 0.09 90 1009.2
20260508114004 64 12 6.0 12.0 0.00 0.12 0.09 90 1009.2
20260508113505 64 346 4.0 15.0 0.00 0.12 0.09 90 1009.4
20260508113005 64 345 5.0 15.0 0.00 0.12 0.09 90 1009.6
20260508112505 64 6 3.0 16.0 0.00 0.12 0.09 90 1009.7
20260508111505 64 8 5.0 13.0 0.00 0.12 0.09 90 1009.7
20260508111005 64 8 7.0 16.0 0.00 0.12 0.09 90 1009.7
20260508110005 64 22 6.0 21.0 0.00 0.12 0.09 91 1009.8
20260508105005 64 355 7.0 15.0 0.00 0.12 0.09 91 1010.3
20260508104505 64 352 6.0 15.0 0.00 0.12 0.09 92 1010.3
20260508104005 64 1 6.0 14.0 0.00 0.12 0.09 92 1010.6
20260508103505 64 340 3.0 12.0 0.00 0.12 0.09 92 1010.6
20260508103006 64 3 5.0 12.0 0.00 0.12 0.09 92 1010.7
20260508102504 64 8 5.0 12.0 0.00 0.12 0.09 92 1010.7
20260508102005 64 352 4.0 12.0 0.00 0.12 0.09 92 1010.8
20260508101005 64 10 5.0 16.0 0.00 0.12 0.09 92 1010.8
20260508095505 64 6 7.0 17.0 0.01 0.12 0.09 92 1011.2
20260508095005 64 5 6.0 17.0 0.01 0.12 0.09 92 1011.2
20260508093505 64 351 5.0 15.0 0.02 0.12 0.09 91 1011.3
20260508092505 63 354 5.0 15.0 0.02 0.12 0.09 92 1011.4
20260508091505 63 355 5.0 14.0 0.02 0.12 0.09 92 1011.4
20260508091005 63 20 4.0 14.0 0.02 0.12 0.09 92 1011.5
20260508085504 63 343 6.0 12.0 0.01 0.11 0.09 92 1011.8
20260508085004 64 351 3.0 9.0 0.01 0.11 0.09 91 1011.8
20260508084505 64 341 4.0 15.0 0.01 0.11 0.09 91 1011.8
20260508084004 64 350 4.0 15.0 0.00 0.10 0.08 90 1011.8
20260508083505 64 358 6.0 16.0 0.00 0.10 0.08 90 1011.7
20260508083006 64 12 8.0 16.0 0.00 0.10 0.08 90 1011.7
20260508082006 64 10 5.0 12.0 0.00 0.10 0.08 90 1011.7
20260508081506 64 21 3.0 13.0 0.00 0.10 0.08 89 1011.8
20260508081006 64 20 5.0 15.0 0.00 0.10 0.08 89 1011.9
20260508080006 64 21 5.0 14.0 0.00 0.10 0.08 90 1011.9
20260508075506 64 25 7.0 14.0 0.00 0.10 0.08 90 1012.0
20260508075006 64 7 7.0 14.0 0.00 0.10 0.08 90 1012.0
20260508074506 64 16 3.0 14.0 0.00 0.10 0.08 90 1012.1
20260508074006 64 38 6.0 14.0 0.00 0.10 0.08 89 1012.2
20260508073506 64 8 5.0 14.0 0.00 0.10 0.08 89 1012.4
20260508073006 64 11 4.0 14.0 0.00 0.10 0.08 89 1012.4
20260508071505 64 14 4.0 15.0 0.00 0.10 0.08 89 1012.4
20260508071006 64 7 6.0 15.0 0.00 0.10 0.08 89 1012.6
20260508070006 64 356 5.0 13.0 0.00 0.10 0.08 89 1012.6
20260508065006 64 12 5.0 13.0 0.00 0.10 0.08 89 1012.6
20260508064006 64 2 6.0 13.0 0.00 0.10 0.08 89 1012.8
20260508063006 64 20 5.0 12.0 0.00 0.10 0.08 88 1013.0
20260508061506 64 7 6.0 13.0 0.00 0.10 0.08 88 1013.4
20260508061007 64 356 3.0 17.0 0.00 0.10 0.08 88 1013.5
20260508060006 64 0 5.0 17.0 0.00 0.10 0.08 88 1013.4
20260508055506 64 0 5.0 13.0 0.00 0.10 0.08 88 1013.4
20260508055006 64 20 6.0 13.0 0.00 0.10 0.08 89 1013.5
20260508054505 64 19 3.0 9.0 0.00 0.10 0.08 89 1013.6
20260508053006 64 22 4.0 10.0 0.00 0.10 0.08 89 1013.4
20260508052506 64 3 5.0 12.0 0.00 0.10 0.08 89 1013.6
20260508051506 64 9 3.0 12.0 0.00 0.10 0.08 89 1013.9
20260508051006 64 10 4.0 12.0 0.00 0.10 0.08 89 1013.9
20260508050005 64 12 3.0 12.0 0.00 0.10 0.08 90 1014.0
20260508045506 64 25 4.0 12.0 0.00 0.10 0.08 90 1014.0
20260508045005 64 20 4.0 10.0 0.00 0.10 0.08 90 1014.0
20260508044506 64 18 3.0 6.0 0.00 0.10 0.08 89 1014.1
20260508044006 64 28 3.0 10.0 0.00 0.10 0.08 89 1014.1
20260508043505 64 18 4.0 10.0 0.00 0.10 0.08 88 1014.2
20260508043006 64 23 3.0 10.0 0.00 0.10 0.08 87 1014.4
20260508042505 64 16 2.0 12.0 0.00 0.10 0.08 88 1014.3
20260508042006 64 16 3.0 12.0 0.00 0.10 0.08 87 1014.2
20260508041506 64 25 3.0 12.0 0.00 0.10 0.08 87 1014.1
20260508041006 64 38 3.0 10.0 0.00 0.10 0.08 86 1014.3
20260508040006 65 26 2.0 8.0 0.00 0.10 0.08 84 1014.5
20260508035006 65 29 3.0 12.0 0.00 0.10 0.08 86 1014.4
20260508034506 64 23 4.0 12.0 0.00 0.10 0.08 86 1014.6
20260508034006 64 3 6.0 12.0 0.00 0.10 0.08 86 1015.0
20260508033006 64 3 5.0 13.0 0.00 0.10 0.08 87 1015.0
20260508032506 64 1 4.0 12.0 0.00 0.10 0.08 87 1015.0
20260508032005 64 352 3.0 12.0 0.00 0.10 0.08 88 1015.0
20260508031506 64 352 6.0 16.0 0.00 0.10 0.08 88 1015.0
20260508031006 64 359 6.0 16.0 0.00 0.10 0.08 88 1015.0
20260508030006 64 10 3.0 12.0 0.00 0.10 0.08 88 1014.9
20260508025506 65 28 2.0 9.0 0.00 0.10 0.08 88 1014.9
20260508025005 65 13 3.0 9.0 0.00 0.10 0.08 88 1015.0
20260508024505 65 21 5.0 10.0 0.00 0.10 0.08 88 1015.1
20260508024006 65 12 5.0 10.0 0.00 0.10 0.08 88 1015.2
20260508023505 65 13 3.0 12.0 0.00 0.10 0.08 88 1015.3
20260508023006 65 357 3.0 12.0 0.00 0.10 0.08 88 1015.4
20260508022506 65 15 3.0 10.0 0.00 0.10 0.08 88 1015.4
20260508022005 65 353 5.0 12.0 0.00 0.10 0.08 88 1015.5
20260508021505 65 19 4.0 12.0 0.00 0.10 0.08 88 1015.7
20260508021006 65 23 4.0 12.0 0.00 0.10 0.08 88 1015.9
20260508020005 65 2 4.0 12.0 0.00 0.10 0.08 88 1016.1
20260508015505 65 14 3.0 10.0 0.00 0.10 0.08 87 1016.2
20260508015006 66 359 3.0 13.0 0.00 0.10 0.08 88 1016.3
20260508014505 66 13 6.0 13.0 0.00 0.10 0.08 87 1016.1
20260508014005 66 24 4.0 12.0 0.00 0.10 0.08 89 1016.0
20260508013006 65 19 3.0 10.0 0.00 0.10 0.08 90 1016.2
20260508012506 65 35 2.0 7.0 0.00 0.10 0.08 90 1016.1
20260508012005 65 18 3.0 7.0 0.00 0.10 0.08 89 1016.2
20260508011505 65 30 1.0 10.0 0.00 0.10 0.08 89 1016.3
20260508011006 65 15 4.0 12.0 0.00 0.10 0.08 88 1016.5
20260508010005 65 20 3.0 9.0 0.00 0.10 0.08 87 1016.6
20260508005505 65 11 3.0 10.0 0.00 0.10 0.08 87 1016.9
20260508005006 65 15 2.0 10.0 0.00 0.10 0.08 88 1016.8
20260508004505 64 15 2.0 12.0 0.00 0.10 0.08 87 1016.8
20260508004005 64 17 3.0 12.0 0.00 0.10 0.08 88 1017.1
20260508002506 64 11 4.0 10.0 0.00 0.10 0.08 87 1017.2
20260508002005 64 2 2.0 10.0 0.00 0.10 0.08 87 1017.5
20260508001006 64 11 3.0 10.0 0.00 0.10 0.08 88 1017.6
20260508000006 64 18 3.0 10.0 0.00 0.10 0.08 87 1018.1
20260507235006 64 18 5.0 10.0 0.00 0.10 0.08 87 1018.1
20260507234505 64 22 3.0 14.0 0.00 0.10 0.08 89 1018.1
20260507234006 64 36 5.0 14.0 0.00 0.10 0.08 89 1018.2
20260507233006 64 15 2.0 7.0 0.00 0.10 0.08 90 1018.4
20260507232505 64 21 3.0 7.0 0.02 0.10 0.08 90 1018.3
20260507232006 63 15 3.0 7.0 0.02 0.10 0.08 90 1018.6
20260507231506 63 9 3.0 6.0 0.02 0.10 0.08 91 1018.7
20260507231005 63 13 2.0 10.0 0.02 0.10 0.08 91 1018.7
20260507230006 62 37 2.0 8.0 0.02 0.10 0.08 92 1018.6
20260507225505 62 19 3.0 10.0 0.02 0.10 0.08 91 1018.7
20260507225005 62 29 5.0 12.0 0.02 0.10 0.08 92 1018.8
20260507224506 62 10 5.0 12.0 0.02 0.10 0.08 93 1018.9
20260507224006 62 6 4.0 12.0 0.02 0.10 0.08 92 1018.9
20260507223505 63 355 2.0 12.0 0.02 0.10 0.08 91 1018.9
20260507223006 63 330 4.0 13.0 0.02 0.10 0.08 89 1018.9
20260507222505 64 5 6.0 13.0 0.00 0.08 0.06 87 1018.7
20260507221505 65 36 3.0 12.0 0.00 0.08 0.06 86 1018.7
20260507220005 65 33 3.0 12.0 0.00 0.08 0.06 86 1018.9
20260507215505 65 21 4.0 12.0 0.00 0.08 0.06 86 1019.0
20260507215006 65 20 3.0 10.0 0.00 0.08 0.06 87 1019.1
20260507214506 65 7 2.0 10.0 0.00 0.08 0.06 88 1019.1
20260507214006 65 30 4.0 10.0 0.00 0.08 0.06 88 1019.1
20260507213005 64 31 2.0 12.0 0.00 0.08 0.06 90 1019.1
20260507212505 64 31 3.0 12.0 0.00 0.08 0.06 89 1019.1
20260507212006 64 34 1.0 10.0 0.00 0.08 0.06 89 1019.1
20260507211506 65 9 3.0 10.0 0.00 0.08 0.06 87 1019.1
20260507211005 65 13 3.0 10.0 0.00 0.08 0.06 87 1018.9
20260507210006 65 58 1.0 10.0 0.00 0.08 0.06 88 1019.1
20260507205505 65 22 2.0 10.0 0.00 0.08 0.06 87 1019.2
20260507204505 64 10 2.0 9.0 0.00 0.08 0.06 90 1019.2
20260507204005 63 14 2.0 9.0 0.00 0.08 0.06 91 1019.4
20260507203005 61 47 1.0 3.0 0.00 0.08 0.06 91 1019.3
20260507202505 61 26 1.0 3.0 0.00 0.08 0.06 91 1019.3
20260507202005 61 33 1.0 5.0 0.00 0.08 0.06 90 1019.2
20260507201505 61 49 2.0 6.0 0.00 0.08 0.06 90 1019.2
20260507201005 61 35 1.0 6.0 0.00 0.09 0.06 90 1019.2
20260507200005 61 19 2.0 5.0 0.00 0.09 0.06 91 1019.2
20260507195505 61 2 1.0 5.0 0.00 0.09 0.06 92 1019.2
20260507195005 62 20 2.0 6.0 0.00 0.09 0.06 92 1019.3
20260507194505 62 32 3.0 6.0 0.00 0.09 0.06 94 1019.3
20260507194005 62 44 1.0 3.0 0.00 0.09 0.06 94 1019.3